Location: Newark
(47.3000°N, 9.6500°E)
Time: 17:45:12
(UTC+00:00)

OTV 5 (USA 277) - Visible Passes

Search period start: 20 October 2019 00:00
Search period end: 30 October 2019 00:00
Orbit: 310 x 324 km, 54.5° (Epoch: 17 October)

Date Brightness Start Highest point End Pass type
(mag) Time Alt. Az. Time Alt. Az. Time Alt. Az.
20 Oct ? 03:34:07 18° SE 03:34:07 18° SE 03:34:56 10° SE visible
21 Oct ? 03:48:52 13° SSE 03:48:52 13° SSE 03:49:13 10° SSE visible
29 Oct ? 17:19:58 10° S 17:22:02 19° SE 17:22:16 19° SE visible
